#timestamp,LO_Frequency,Hit,StdDev 
1692975615.7,286046997.5,N
1692975635.5,286046997.0,N
1692975655.4,286046997.0,N
1692975675.2,286046997.8,N
1692975695.0,286046997.7,N
1692975695.9,286046997.7,N
1692975715.8,286046996.8,N
1692975735.6,286046995.4,N
1692975755.4,286046998.0,N
1692975775.3,286046997.9,N
1692975795.1,286046997.9,N
1692975815.8,286046998.0,N
1692975835.7,286047001.2,N
1692975855.5,286046999.2,N
1692975875.3,286046995.4,N
1692975895.2,286046994.9,N
1692975915.0,286046995.4,N
1692975915.9,286046995.4,Y
1692975935.7,286047000.7,P
1692975955.6,286046998.1,N
1692975975.4,286046998.1,N
1692975995.2,286047000.6,N
1692976015.1,286047000.4,N
1692976016.0,286047000.4,N
1692976035.8,286047002.4,N
1692976055.6,286047000.2,N
1692976075.5,286047000.8,N
1692976095.3,286047000.9,N
1692976115.1,286047000.5,N
1692976135.9,286047000.8,N
1692976155.7,286047000.7,N
1692976175.5,286046998.6,N
1692976195.4,286046999.1,N
1692976215.2,286046996.6,N
1692976235.0,286046998.8,N
1692976235.9,286046998.8,N
1692976255.8,286047004.4,Y
1692976275.6,286047001.6,P
1692976295.4,286047002.2,N
1692976315.3,286047000.7,N
1692976335.1,286047002.0,N
1692976355.8,286047000.0,N
1692976375.7,286047001.6,N
1692976395.5,286046999.8,N
1692976415.3,286047000.9,N
1692976435.2,286047000.5,N
1692976455.0,286047002.0,N
1692976455.9,286047002.0,N
1692976475.7,286047000.3,N
1692976495.6,286047000.3,N
1692976515.4,286047001.0,N
1692976535.2,286047001.2,N
1692976555.1,286046998.1,N
1692976556.0,286046998.1,N
1692976575.8,286047001.0,N
1692976595.6,286047000.7,N
1692976615.5,286046998.2,N
1692976635.3,286046998.2,N
1692976655.1,286046998.7,N
1692976675.9,286047001.0,N
1692976695.7,286047000.5,N
1692976715.5,286047000.9,N
1692976735.4,286047000.7,N
1692976755.2,286046998.1,N
1692976775.0,286047000.8,N
1692976776.0,286047000.8,N
1692976795.8,286047000.0,N
1692976815.6,286046999.7,N
1692976835.4,286046999.7,N
1692976855.3,286047002.3,N
1692976875.1,286047002.5,N
1692976895.8,286047001.6,N
1692976915.7,286047002.7,N
1692976935.5,286047001.3,N
1692976955.4,286047004.5,Y
1692976975.2,286047001.8,P
1692976995.0,286047000.1,N
1692976995.9,286047000.1,N
1692977015.8,286046999.7,N
1692977035.6,286047000.8,N
1692977055.4,286047002.4,Y
1692977075.3,286047003.7,P
1692977095.1,286047002.4,N
1692977096.0,286047002.4,N
1692977115.8,286047000.5,N
1692977135.7,286047000.9,N
1692977155.5,286047000.6,N
1692977175.3,286047000.6,N
1692977195.2,286046998.6,N
1692977215.9,286046998.4,N
1692977235.7,286046998.5,N
1692977255.6,286047004.8,N
1692977275.4,286047004.0,N
1692977295.2,286047001.7,N
1692977315.1,286047000.3,N
1692977316.0,286047000.3,N
1692977335.8,286046998.1,N
1692977355.6,286047000.9,N
1692977375.5,286046999.9,N
1692977395.3,286047000.3,N
1692977415.1,286047000.5,N
1692977435.9,286047000.2,N
1692977455.7,286046999.9,N
1692977475.5,286047002.8,N
1692977495.4,286047000.4,N
1692977515.2,286047002.6,N
1692977535.0,286047000.9,N
1692977535.9,286047000.9,N
1692977555.8,286047000.0,N
1692977575.6,286046999.8,N
1692977595.4,286047000.4,N
1692977615.3,286047000.7,N
1692977635.1,286047000.5,N
1692977636.0,286047000.5,N
1692977655.8,286047000.1,N
1692977675.7,286047002.7,N
1692977695.5,286046999.9,N
1692977715.3,286047002.7,N
1692977735.2,286047000.0,N
1692977755.9,286047000.6,N
1692977805.7,286046998.4,E
1692977815.7,286047001.0,N
1692977835.5,286047000.2,P
1692977855.3,286047005.1,P
1692977875.2,286047005.7,N
1692977895.9,286047004.0,N
1692977915.7,286047002.1,N
1692977935.6,286047000.1,N
1692977955.4,286046999.7,N
1692977975.2,286047002.4,N
1692977995.1,286047002.4,N
1692977996.0,286047002.4,N
1692978015.8,286046999.9,N
1692978035.6,286047002.2,N
1692978055.5,286047004.4,N
1692978075.3,286047002.3,N
1692978095.1,286047000.1,N
1692978115.9,286047002.7,N
1692978135.7,286047004.0,N
1692978155.5,286047001.7,N
1692978175.4,286047001.7,N
1692978195.2,286047004.2,N
1692978215.0,286047003.9,N
1692978215.9,286047003.9,N
1692978235.8,286047004.4,N
1692978255.6,286047002.1,N
1692978275.4,286047001.4,N
1692978295.3,286047011.9,Y
1692978315.1,286047001.0,P
1692978335.8,286047000.6,N
1692978355.7,286046999.8,N
1692978375.5,286047000.0,N
1692978395.3,286047002.8,N
1692978415.2,286047002.3,N
1692978435.9,286047000.9,N
1692978455.7,286047000.1,N
1692978475.6,286047004.3,Y
1692978495.4,286047022.3,P
1692978515.2,286047013.4,N
1692978535.1,286047008.3,N
1692978536.0,286047008.3,N
1692978555.8,286047005.0,N
1692978575.6,286047003.8,N
1692978595.5,286047001.7,N
1692978615.3,286047001.5,N
1692978635.1,286047000.0,N
1692978655.9,286046998.8,N
1692978675.7,286046998.9,N
1692978695.5,286046999.3,N
1692978715.4,286046996.7,N
1692978735.2,286046994.9,N
1692978755.0,286046997.1,N
1692978755.9,286046997.1,N
1692978775.8,286046997.5,N
1692978795.6,286046995.5,N
1692978815.4,286046996.2,N
1692978835.3,286046995.2,N
1692978855.1,286046998.0,N
1692978875.8,286046995.0,N
1692978895.7,286046996.7,N
1692978915.5,286046995.5,N
1692978935.3,286046996.6,N
1692978955.2,286046999.5,N
1692978975.9,286046997.5,N
1692978995.7,286046994.9,N
1692979015.6,286046997.5,N
1692979035.4,286046997.0,N
1692979055.2,286046994.9,N
1692979075.1,286046995.8,N
1692979076.0,286046995.8,N
1692979095.8,286046996.1,N
1692979115.6,286046995.8,N
1692979135.5,286046995.4,N
1692979155.3,286046995.2,N
1692979175.1,286046997.7,N
1692979195.9,286046994.9,Y
